Regional Weather Roundup
Issued by NWS

Home | Current Version | Previous Version | Text Only | Print | Product List | Glossary Off
Versions: 1 2 3 4 5 6 7 8 9 10 11 12 13 14 15 16 17 18 19 20 21 22 23 24 25 26 27 28 29 30 31 32 33 34 35 36 37 38 39 40 41 42 43 44 45 46 47 48 49 50

000
ASUS45 KBOU 301007
RWRCO

WEATHER ROUNDUP FOR COLORADO
NATIONAL WEATHER SERVICE DENVER/BOULDER CO
400 AM MDT SUN AUG 30 2015

NOTE: "FAIR" INDICATES FEW OR NO CLOUDS BELOW 12000 FEET WITH NO
SIGNIFICANT WEATHER AND/OR OBSTRUCTIONS TO VISIBILITY.

COZ001>005-013-030-031-301100-
...NORTHWEST COLORADO...

CITY           SKY/WX    TMP DP  RH WIND       PRES   REMARKS
CRAIG          PTCLDY    46  42  86 CALM      30.18R
HAYDEN         NOT AVBL
MEEKER         CLEAR     49  40  71 NE3       30.19S
MOUNT WERNER   NOT AVBL
STEAMBOAT SPGS PTCLDY    50  39  65 CALM      30.24S
WALDEN         PTCLDY    41  32  70 SE7       30.32S
$$

COZ006>008-011-301100-
...WEST CENTRAL VALLEYS...

CITY           SKY/WX    TMP DP  RH WIND       PRES   REMARKS
GRAND JUNCTION CLEAR     63  41  44 E6        30.07R
MONTROSE       CLEAR     60  43  53 SE12      30.19S
EAGLE          PTCLDY    52  41  66 CALM      30.28S
RIFLE          CLEAR     56  44  64 SE5       30.16R
DELTA          CLEAR     62  45  52 NE6       30.15S
NUCLA          MOCLDY    63  39  42 E5        30.23R
$$

COZ017>023-064>068-301100-
...SOUTHWEST COLORADO...

CITY           SKY/WX    TMP DP  RH WIND       PRES   REMARKS
DURANGO        CLEAR     54  45  71 N5        30.30S
CORTEZ         CLEAR     57  46  66 CALM      30.21R
PAGOSA SPRINGS CLEAR     51  43  76 CALM      30.40S
TELLURIDE      CLEAR     58  38  47 E3        30.46S
WOLF CREEK PAS CLEAR     45  37  76 SW22      30.69S
$$

COZ009-010-012-014-032>034-037-058>063-301100-
...CENTRAL COLORADO...

CITY           SKY/WX    TMP DP  RH WIND       PRES   REMARKS
ASPEN          CLEAR     50  38  63 S6        30.32S
BUENA VISTA    CLEAR     49  39  68 NW5       30.38R
COPPER MTN     CLEAR     54  27  35 SW9       30.64S
BERTHOUD PASS  FAIR      45  32  61 W29G37    30.66F
COTTONWOOD PAS CLEAR     55  32  41 CALM      30.49S
GUNNISON       CLEAR     45  37  76 SE3       30.40R
KREMMLING      PTCLDY    45  37  76 CALM      30.33R
LEADVILLE      CLEAR     41  35  79 CALM      30.49S
MONARCH PASS   PTCLDY    45  34  65 SW14      30.74S
SALIDA         CLEAR     60  42  52 N3        30.40S
SUNLIGHT       CLEAR     54  32  43 CALM      30.55S
WILKERSON PASS CLEAR     48  36  61 W7        30.60F
$$

COZ069>075-301100-
...SAN LUIS VALLEY/SANGRE DE CRISTO MOUNTAINS...

CITY           SKY/WX    TMP DP  RH WIND       PRES   REMARKS
ALAMOSA        PTCLDY    52  42  69 E6        30.36R
LA VETA PASS   CLEAR     52  37  58 S14G25    30.51S
SAGUACHE       PTCLDY    52  41  66 N8        30.40R
$$

COZ035-036-038>040-301100-
...NORTHERN COLORADO FRONT RANGE...

CITY           SKY/WX    TMP DP  RH WIND       PRES   REMARKS
DENVER INTL AP PTCLDY    69  39  33 S14       30.09R
DMNS CITY PARK   N/A     67  41  38 S7        30.10R
AURORA         PTCLDY    66  41  39 S13       30.12S
FRONT RANGE AP NOT AVBL
ERIE MUNI ARPT PTCLDY    55  48  75 SW3       30.08S
BOULDER MUN AP PTCLDY    63  45  51 SW3       30.09S
CENTENNIAL     PTCLDY    66  41  40 SE8       30.13F
BROOMFIELD     PTCLDY    66  43  42 N9        30.11F
FORT COLLINS   PTCLDY    59  46  63 N7        30.09S
LONGMONT       PTCLDY    57  48  71 CALM      30.10R
$$

COZ041-046-047-076>085-087-088-301100-
...PIKES PEAK/PALMER DIVIDE AND SOUTHERN FOOTHILLS...

CITY           SKY/WX    TMP DP  RH WIND       PRES   REMARKS
COLO. SPRINGS  MOCLDY    56  42  59 N8        30.21F
A. F. ACADEMY  NOT AVBL
ELLICOTT       PTCLDY   N/A N/A N/A SE8       30.19S
FALCON         PTCLDY    53  45  72 MISG      30.25F
FORT CARSON    MOCLDY    56  44  63 NW7       30.17F
LIMON          PTCLDY    51  44  77 CALM      30.17S
MONUMENT HILL  MOCLDY    55  43  62 S9        30.24F
TRINIDAD       CLEAR     65  50  58 SW10      30.18S
$$

COZ042>045-048>051-090-091-301100-
...NORTHEAST COLORADO...

CITY           SKY/WX    TMP DP  RH WIND       PRES   REMARKS
GREELEY ARPT   CLEAR     55  45  67 NW5       30.06S
AKRON          PTCLDY    66  44  45 S15       30.08F
BURLINGTON     CLEAR     62  45  53 S9        30.12F
WRAY           CLEAR     64  46  50 SW7       30.06S
STERLING       PTCLDY    55  46  71 SW7       30.03F
HOLYOKE        CLEAR     61  48  63 SW7       30.06S
FORT MORGAN    PTCLDY    62  41  45 SE7       30.06F
$$

COZ086-089-092>099-301100-
...SOUTHEAST COLORADO...

CITY           SKY/WX    TMP DP  RH WIND       PRES   REMARKS
PUEBLO         PTCLDY    62  44  51 W5        30.10S
LA JUNTA       CLEAR     64  43  46 E3        30.09S
LAMAR          CLEAR     59  47  64 S5        30.07F
SPRINGFIELD    NOT AVBL
$$




USA.gov is the U.S. government's official web portal to all federal, state and local government web resources and services.